Location: ????????
(55.8075°N, 38.0861°E)
Time: 15:27:51
(UTC+00:00)

Daily predictions for brighter satellites

Satellite Brightness Start Highest point End
(mag) Time Altitude Azimuth Time Altitude Azimuth Time Altitude Azimuth
USA 234 3.4 14:04:39 10° E 14:11:14 83° N 14:17:50 10° W
CZ-4B R/B 4.3 14:11:58 10° S 14:15:41 41° W 14:19:15 10° NNW
Cosmos 2263 Rocket 3.3 14:11:23 10° SSE 14:15:59 26° ESE 14:20:36 10° NE
ATLAS 3B R/B 3.2 14:09:28 10° NW 14:16:19 69° SW 14:23:25 10° SSE
NOSS 2-2 (D) 4.3 14:13:34 10° W 14:17:08 38° NNW 14:21:34 10° NE
SL-16 R/B 4.0 14:13:19 10° NW 14:18:32 38° WSW 14:23:43 10° S
CORIOLIS 4.2 14:13:21 10° SE 14:18:40 61° ENE 14:23:59 10° NNW
Cosmos 1634 Rocket 4.1 14:12:58 10° N 14:19:07 57° ENE 14:25:16 10° SSE
NOAA 11 4.3 14:14:28 10° SE 14:19:50 57° ENE 14:25:15 10° N
SL-19 R/B 4.4 14:14:46 10° NNE 14:20:22 86° WNW 14:26:05 10° SSW
OPS 8737 4.2 14:21:40 10° NW 14:24:32 59° NNE 14:27:57 10° ESE
Cosmos 1538 Rocket 4.4 14:21:36 10° NNW 14:26:29 39° NE 14:31:19 10° ESE
Cosmos 1953 3.1 14:23:08 10° NNW 14:27:03 57° W 14:30:57 10° S
COSMO-SKYMED 1 4.2 14:24:44 10° NE 14:27:28 16° E 14:30:10 10° SE
In-Cosmos 22 4.1 14:22:35 10° S 14:28:02 84° ESE 14:33:25 10° NNE
SMAP 3.0 14:24:08 10° SSE 14:28:47 77° ENE 14:33:28 10° NNW
CZ-4C R/B 3.3 14:26:04 10° NNE 14:29:04 38° E 14:32:03 10° S
Cosmos 1455 3.9 14:27:48 10° NNE 14:29:50 14° ENE 14:31:53 10° E
Genesis I 4.1 14:26:33 10° W 14:30:13 39° NNW 14:33:56 10° NE
Cosmos 1943 3.3 14:25:03 10° NW 14:30:47 89° NE 14:36:28 10° SSE
Cosmos 1536 Rocket 3.7 14:26:41 10° S 14:30:58 54° E 14:35:19 10° NNE
Cosmos 1300 3.0 14:30:09 10° N 14:33:52 45° ENE 14:37:33 10° SSE
Cosmos 783 Rocket 4.5 14:29:09 10° NNW 14:34:24 78° ENE 14:39:39 10° SSE
Meteor 1-24 Rocket 4.4 14:30:28 10° SSE 14:35:03 30° E 14:39:37 10° NNE
TIMED 4.5 14:31:19 10° NNW 14:35:44 79° ENE 14:40:06 10° SSE
Cosmos 2344 4.2 14:28:34 10° WNW 14:36:28 57° NNE 14:46:52 10° E
ARGOS 4.3 14:32:54 10° E 14:36:56 22° NE 14:41:00 10° N
Cosmos 1939 Rocket 3.3 14:33:49 10° SE 14:37:44 43° ENE 14:41:37 10° N
Okean-O 3.7 14:34:28 10° ESE 14:38:02 24° ENE 14:41:36 10° N
Feng Yun 1-1 Rocket 4.4 14:34:00 10° SE 14:39:13 49° ENE 14:44:35 10° N
Cosmos 2082 Rocket 3.7 14:38:20 10° NNW 14:42:25 19° NNE 14:46:06 11° NE
Okean O Rocket 1.6 14:38:19 10° SSE 14:42:46 79° ENE 14:47:14 10° NNW
Envisat 4.0 14:38:10 10° S 14:43:07 51° W 14:48:06 10° NNW
Cosmos 1833 Rocket 4.0 14:39:02 10° NNW 14:43:23 22° NNE 14:47:06 12° ENE
Cosmos 2219 3.9 14:39:11 10° WSW 14:44:46 52° NW 14:50:23 10° NNE
Cosmos 968 Rocket 3.4 14:40:44 10° SSW 14:45:49 72° ESE 14:50:57 10° NNE
AQUARIUS 4.2 14:41:25 10° SSE 14:45:55 88° WSW 14:50:27 10° NNW
Cosmos 1025 Rocket 3.2 14:41:52 10° SSW 14:46:12 80° W 14:50:36 10° N
Cosmos 1315 Rocket 2.7 14:42:48 10° N 14:46:46 66° ENE 14:50:44 10° SSE
NOSS 3-1 (C) 4.1 14:40:32 10° WNW 14:47:04 54° NNE 14:54:51 10° E
Cosmos 1908 4.2 14:43:26 10° NNW 14:47:12 51° W 14:50:58 10° S
CZ-4 R/B 2.3 14:44:20 10° ESE 14:47:48 27° ENE 14:51:12 10° N
Cosmos 1486 Rocket 4.0 14:46:10 10° SSW 14:51:23 75° ESE 14:56:38 10° NNE
Tsikada Rocket 4.0 14:46:34 10° S 14:52:53 82° E 14:59:10 10° NNE
ADEOS Rocket 3.6 14:46:40 10° NNE 14:52:56 60° WNW 14:58:36 10° SW
H-2A R/B 3.1 14:50:12 10° S 14:54:12 59° WSW 14:58:22 10° NNW
ERS-2 3.8 14:54:27 15° E 14:54:39 15° E 14:56:46 10° SE
Cosmos 2142 Rocket 4.4 14:51:03 10° N 14:57:17 72° ENE 15:03:24 10° SSE
CZ-4C R/B 2.3 14:52:43 10° SW 14:57:55 75° SE 15:03:29 14° NE
Cosmos 2227 Rocket 3.0 14:55:00 10° WSW 15:00:29 49° NW 15:06:03 10° NNE
Cosmos 1606 Rocket 3.5 14:56:11 10° N 15:00:34 69° ENE 15:04:57 10° SSE
Timation 1 Rocket 4.4 14:55:23 10° SW 15:01:25 90° WNW 15:07:29 10° NE
Cosmos 1674 3.2 14:58:31 10° SSW 15:02:19 61° WNW 15:06:10 10° N
IRS-1C Rocket 4.2 14:57:29 10° SE 15:02:35 54° ENE 15:07:43 10° N
H-2A R/B 2.1 14:58:15 10° NNE 15:02:45 64° ESE 15:07:08 10° S
USA 229 DEB 4.1 14:56:35 10° WNW 15:03:25 53° NNE 15:09:41 14° E
USA 229 4.1 14:56:42 10° WNW 15:03:30 52° NNE 15:09:44 14° E
YAOGAN 1 3.1 15:02:55 10° SE 15:06:51 35° ENE 15:10:50 10° N
Cosmos 1892 Rocket 4.3 15:03:25 10° SSE 15:07:12 30° E 15:10:52 11° NNE
NOSS 3-4 (A) 3.5 15:04:07 10° SW 15:10:07 84° NW 15:15:33 16° NE
NOSS 3-4 (C) 3.5 15:04:14 10° SW 15:10:13 84° NW 15:15:39 16° NE
Cosmos 1844 Rocket 4.1 15:07:38 10° SE 15:11:12 17° E 15:12:01 17° E
Lacrosse 5 2.0 15:06:55 10° WNW 15:12:00 76° SSW 15:17:00 10° ESE
SKYMED 2 4.1 15:11:52 10° NNE 15:15:58 38° E 15:20:02 10° SSE
CZ-3B R/B 1.7 15:14:45 10° W 15:16:48 55° SSW 15:20:20 13° ESE
USA 281 4.3 15:13:42 17° ENE 15:16:52 25° NNE 15:21:57 10° NNW
Cosmos 2228 3.1 15:13:00 10° NNW 15:17:17 78° W 15:21:33 10° S
CZ-4B R/B 4.1 15:12:01 10° S 15:17:28 55° W 15:23:02 10° NNW
NOSS 3-1 (A) 4.1 15:12:22 10° WNW 15:18:55 54° NNE 15:24:45 18° E
Cosmos 1503 Rocket 4.0 15:13:47 10° SSW 15:19:09 75° ESE 15:24:21 11° NNE
CZ-2C R/B 3.1 15:15:21 10° SSE 15:20:40 72° ENE 15:26:19 10° NNW
Cosmos 2297 Rocket 3.5 15:20:10 10° WSW 15:25:19 34° NW 15:30:27 10° NNE
Meteor 2-1 Rocket 4.3 15:21:07 10° N 15:26:39 52° ENE 15:32:02 10° SE
Ariane Rocket 4.3 15:27:04 20° NE 15:27:07 20° NE 15:30:47 10° N
Helios 1A Rocket 3.2 15:23:28 10° SE 15:27:25 43° ENE 15:31:22 10° N
SJ 16-02 3.1 15:24:33 10° SE 15:26:14 16° ESE 15:26:14 16° ESE
ATLAS 2AS CENTAUR R/B 3.1 15:19:52 10° SW 15:27:52 86° NW 15:33:59 18° NE
Cosmos 923 Rocket 4.2 15:23:07 10° NNW 15:28:24 52° NE 15:33:35 10° SE
Cosmos 2058 Rocket 3.0 15:25:02 10° N 15:29:32 69° ENE 15:34:02 10° SSE
H-2A R/B 2.0 15:25:13 10° SE 15:30:05 55° ENE 15:35:07 10° N
Meteor 2-10 Rocket 3.6 15:26:49 10° NNW 15:32:31 80° ENE 15:37:55 10° SSE
Cosmos 1626 2.7 15:28:59 10° SSW 15:32:37 57° WNW 15:36:18 10° N
CZ-2D R/B 3.2 15:29:50 10° SSE 15:33:43 84° W 15:37:35 10° NNW
RESURS DK-1 2.3 15:30:46 10° SW 15:34:56 84° NW 15:37:29 23° NE
CSL-04 Rocket 3.9 15:30:51 10° SE 15:36:02 48° ENE 15:41:18 10° N
Cosmos 1680 Rocket 3.7 15:31:06 10° NNW 15:36:12 48° NE 15:39:50 18° ESE
Meteor 2-5 Rocket 3.7 15:33:43 10° SSW 15:39:18 82° WNW 15:44:53 10° NNE
SL-14 R/B 3.7 15:36:37 10° SSW 15:40:28 63° WNW 15:44:24 10° N
ATLAS 5 CENTAUR R/B 1.6 15:36:56 10° SW 15:41:01 61° SE 15:42:55 33° ENE
Elektron 1 4.2 15:37:49 10° W 15:41:03 51° NNW 15:41:48 38° NNE
SeaSat 1 3.9 15:37:29 10° NNE 15:41:47 31° NW 15:46:06 10° W
Cosmos 158 Rocket 4.0 15:37:25 10° NNW 15:42:43 68° ENE 15:48:04 10° SE
Okean 1-7 Rocket 3.9 15:39:57 10° SSE 15:44:17 46° E 15:46:53 22° NNE
CREW DRAGON DEMO-1 DEB 4.0 15:43:46 10° WSW 15:46:23 31° S 15:47:01 28° SSE
CZ-4B R/B 1.3 15:45:32 26° NNE 15:47:22 84° ESE 15:50:44 10° SSW
Cosmos 1726 Rocket 4.2 15:43:41 10° NNW 15:47:58 57° W 15:52:16 10° S
USA 234 3.2 15:50:09 25° ESE 15:54:18 90° N 16:00:53 10° WNW
SL-08 RB Rocket 3.9 15:55:49 38° ESE 15:56:57 46° ENE 16:01:17 10° N
Aureole 3 2.9 15:53:46 10° N 15:57:48 76° ENE 15:59:26 29° SSE
Cosmos 2263 Rocket 2.3 15:53:43 10° SW 15:59:25 78° NW 16:03:19 21° NNE
COSMOS 2406 3.6 15:54:13 10° NNW 15:59:46 44° NE 16:01:15 37° E
PSLV R/B 4.0 16:01:28 49° ENE 16:02:08 55° ESE 16:06:17 10° S
COSMO-SKYMED 1 2.6 16:00:24 13° NNE 16:04:13 84° WNW 16:08:35 10° SSW
COSMOS 2455 3.0 15:58:48 10° SSW 16:04:36 50° ESE 16:06:25 38° ENE
Cosmos 1455 2.1 16:02:13 10° NNW 16:06:02 88° W 16:09:52 10° S
Iridium 4 Rocket 3.8 16:01:51 10° N 16:07:36 54° E 16:12:57 10° SSE
Cosmos 2112 Rocket 3.9 16:08:07 10° NNW 16:13:25 72° ENE 16:15:33 36° SE
Okean-O 3.0 16:09:47 10° S 16:14:12 63° WSW 16:18:37 10° NNW
MOS 1 Rocket 3.0 16:12:27 20° NNE 16:15:30 84° WNW 16:19:47 10° SSW
ARGOS 3.0 16:11:13 10° SSE 16:16:35 88° ENE 16:22:01 10° NNW
Meteor 1-24 Rocket 4.2 16:12:40 10° SSW 16:17:54 54° WNW 16:23:08 10° N
Meteor 2-8 Rocket 4.3 16:13:16 10° N 16:19:22 69° ENE 16:25:26 10° SSE
Cosmos 1777 Rocket 3.9 16:14:11 10° SSW 16:19:28 88° ESE 16:21:50 34° NNE
GENESIS II 4.2 16:16:08 10° SW 16:20:09 81° NW 16:20:19 79° N
Meteor 2-15 4.5 16:14:21 10° N 16:20:24 54° ENE 16:22:20 39° ESE
CZ-2C R/B 4.0 16:23:28 25° SSE 16:23:28 25° SSE 16:25:59 10° SSE
CZ-4 R/B 2.4 16:18:42 10° S 16:22:40 46° W 16:26:35 10° NNW
CSL-04 Debris 4.2 16:18:09 10° SSE 16:23:34 82° WSW 16:29:00 10° NNW
IRS-1A Rocket 4.5 16:26:56 50° E 16:27:31 52° ENE 16:33:13 10° NNW
Cosmos 2082 Rocket 2.8 16:22:47 10° NNW 16:27:57 38° NE 16:27:57 38° NE
Cosmos 1833 Rocket 2.8 16:23:03 10° NNW 16:28:35 53° NE 16:28:49 53° ENE
ERS-2 2.4 16:29:01 63° WSW 16:29:01 63° WSW 16:32:15 10° SSW
Cosmos 1844 4.1 16:23:28 10° S 16:27:58 42° SE 16:27:58 42° SE
H-2A R/B 4.3 16:34:44 10° N 16:38:22 24° NW 16:41:57 10° WSW
Cosmos 1092 Rocket 3.8 16:32:20 10° S 16:38:30 71° E 16:44:39 10° NNE
NOSS 3-1 (C) 4.0 16:31:27 10° NW 16:38:33 82° SW 16:42:42 33° SE
YAOGAN 1 4.0 16:38:56 10° SSW 16:42:58 37° W 16:47:01 10° NNW
Meteor 1-21 Rocket 4.0 16:39:23 10° S 16:44:55 87° ESE 16:47:01 40° NNE
Cosmos 2227 Rocket 4.1 16:41:37 10° WNW 16:45:55 21° NNW 16:48:20 17° NNE
CZ-4C R/B 3.0 16:41:23 10° W 16:46:52 50° NNW 16:48:41 39° NNE
Meteor 2-15 Rocket 4.3 16:42:58 10° N 16:49:06 66° ENE 16:49:06 66° ENE
Cosmos 2344 4.2 16:43:08 10° NW 16:51:52 84° SW 16:58:21 31° SE
Cosmos 1812 Rocket 4.0 16:48:46 10° NNW 16:52:41 59° WNW 16:52:41 59° WNW
Cosmos 1844 Rocket 2.6 16:48:34 10° SSW 16:53:44 70° SSE 16:53:44 70° SSE
Lacrosse 5 3.5 16:50:09 10° WNW 16:54:30 29° SW 16:56:15 23° S
USA 229 DEB 3.8 16:47:47 10° NW 16:54:58 84° SW 16:57:09 51° SE
USA 229 3.8 16:47:54 10° NW 16:55:04 84° SW 16:57:13 51° SE
DMSP B5D1-3 4.5 16:56:06 75° NNW 16:56:27 80° WNW 17:01:33 10° SSW
Nadezhda 4 Rocket 4.3 16:51:00 10° SSW 16:57:12 63° WNW 17:03:22 10° N
USA 267 4.2 17:01:09 30° SSE 17:01:09 30° SSE 17:05:15 10° SSW
USA 281 3.3 17:00:34 57° NE 17:00:34 57° NE 17:06:46 10° NNW
NOSS 3-4 (A) 4.2 16:55:47 10° W 17:01:44 46° N 17:03:00 42° NNE
NOSS 3-4 (C) 4.2 16:55:53 10° W 17:01:50 47° N 17:03:06 42° NNE
Ariane Rocket 3.8 17:07:15 41° NNW 17:07:15 41° NNW 17:10:34 10° NNW
SJ 16-02 2.9 17:01:10 10° SSW 17:03:17 28° SW 17:03:17 28° SW
H-2A R/B 3.8 17:05:28 10° SSW 17:09:50 30° W 17:14:20 10° NNW
NOSS 3-1 (A) 3.9 17:03:19 10° NW 17:10:27 82° SW 17:12:14 58° SSE
Cosmos 2297 Rocket 4.1 17:07:12 10° NW 17:11:06 18° N 17:12:16 17° N
RESURS DK-1 4.5 17:10:17 10° W 17:13:23 22° NW 17:13:23 22° NW
CZ-4B R/B 4.5 17:18:38 13° NW 17:19:03 13° NW 17:20:46 10° W
ATLAS 2AS CENTAUR R/B 3.5 17:12:00 10° W 17:19:41 51° NNW 17:21:24 44° NNE
Cosmos 1553 Rocket 4.1 17:18:23 10° NNW 17:24:50 77° W 17:25:16 73° SW
ATLAS 5 CENTAUR R/B 3.1 17:21:37 10° W 17:24:28 35° WNW 17:24:28 35° WNW
Cosmos 2098 Rocket 4.3 17:21:32 10° S 17:28:45 87° WNW 17:36:14 10° NNE
Cosmos 2026 Rocket 4.2 17:28:22 10° SSW 17:39:29 16° N 17:40:41 10° N
USA 234 3.6 17:37:29 53° SSW 17:37:41 53° SW 17:44:05 10° WNW
Cosmos 2263 Rocket 3.8 17:39:26 10° W 17:44:14 27° NNW 17:45:02 26° NNW
COSMOS 2406 4.0 17:38:39 10° NW 17:43:21 49° W 17:43:21 49° W
COSMOS 2455 3.6 17:44:39 10° WSW 17:49:36 49° WNW 17:49:36 49° WNW
Cosmos 1833 Rocket 4.3 18:07:13 10° NW 18:10:32 31° WNW 18:10:32 31° WNW
Cosmos 2082 Rocket 3.8 18:06:56 10° NW 18:09:50 30° NW 18:09:50 30° NW
CZ-4C R/B 4.1 18:30:41 10° WNW 18:33:52 30° NW 18:33:52 30° NW
ATLAS 2AS CENTAUR R/B 4.3 19:04:26 10° WNW 19:08:50 33° NW 19:08:50 33° NW
